AirNav   Everest Fuels
 
 428 users online  

M49 Jolly Fisherman Seaplane Base
Waubun, Minnesota, USA

GOING TO WAUBUN?


FAA INFORMATION EFFECTIVE 10 SEPTEMBER 2020

Location

FAA Identifier: M49
Lat/Long: 47-08-34.8540N 095-31-44.1060W
47-08.580900N 095-31.735100W
47.1430150,-95.5289183
(estimated)
Elevation: 1499 ft. / 457 m (estimated)
Variation: 05E (1985)
From city: 17 miles E of WAUBUN, MN
Time zone: UTC -5 (UTC -6 during Standard Time)
Zip code: 56589

Seaplane Base Operations

Seaplane Base use: Open to the public
Activation date: 03/1983
Control tower: no
ARTCC: MINNEAPOLIS CENTER
FSS: PRINCETON FLIGHT SERVICE STATION
NOTAMs facility: PNM (NOTAM-D service available)
Attendance: MAY-OCT DAYLIGHT HOURS, NOV-APR/UNATNDD/
Wind indicator: yes
Segmented circle: no

Seaplane Base Communications

CTAF: 122.9
WX AWOS-3PT at 3N8 (18 nm NW): 121.125 (218-936-2507)

Nearby radio navigation aids

VOR radial/distance  VOR name  Freq  Var
PKDr304/23.8PARK RAPIDS VOR/DME110.6004E
DTLr033/24.0DETROIT LAKES VOR/DME111.2005E
IDJr227/32.9LAKE BEMIDJI VOR/DME110.0001E

 
NDB name  Hdg/Dist  Freq  Var  ID
FOSSTON157/28.522403EFSE ..-. ... .

Seaplane Base Services

Parking: tiedowns
Airframe service: NONE
Powerplant service: NONE
Bottled oxygen: NONE
Bulk oxygen: NONE

Runway Information

Runway 8W/26W

Dimensions: 5000 x 500 ft. / 1524 x 152 m
Surface: water
RUNWAY 8W  RUNWAY 26W
Traffic pattern: leftleft

Seaplane Base Ownership and Management from official FAA records

Ownership: Privately-owned
Owner: ANNE BUELOW
39126 JOLLY FISHERMAN ROAD
WAUBUN, MN 56589
Phone 701-388-8042
Manager: ANNE BUELOW
39126 JOLLY FISHERMAN ROAD
WAUBUN, MN 56589
Phone 701-388-8042
EMAIL ADDRESS: ANNE.JOLLYFISH@GMAIL.COM (ALL LOWER CASE)

Seaplane Base Operational Statistics

Aircraft operations: 40/year *
75% local general aviation
25% transient general aviation
* for 12-month period ending 31 August 2018

Additional Remarks

FOR CD CTC MINNEAPOLIS ARTCC AT 651-463-5588.

Instrument Procedures

There are no published instrument procedures at M49.

Some nearby airports with instrument procedures:

3N8 - Mahnomen County Airport (18 nm NW)
KPKD - Park Rapids Municipal Airport-Konshok Field (24 nm SE)
KDTL - Detroit Lakes Airport-Wething Field (24 nm SW)
KFSE - Fosston Municipal Airport-Anderson Field (29 nm N)
16D - Perham Municipal Airport (32 nm S)
 
Loc | Ops | Rwys | IFR | FBO | Links
Com | Nav | Svcs | Stats | Notes
Area around M49 (Jolly Fisherman Seaplane Base)
 
Road maps at: MapQuest Bing Google
 
Aerial photo
WARNING: Photo may not be current or correct
Aerial photo of M49 (Jolly Fisherman Seaplane Base)
Photo by Pete Peterson
Taken in September 2007

Do you have a better or more recent aerial photo of Jolly Fisherman Seaplane Base that you would like to share? If so, please send us your photo.

 
Sectional chart

 
Airport distance calculator
Flying to Jolly Fisherman Seaplane Base? Find the distance to fly.

From to M49

Sunrise and sunset
Times for 01-Oct-2020
 Local
(UTC-5)
 Zulu
(UTC)
Morning civil twilight06:5311:53
Sunrise07:2312:23
Sunset19:0024:00
Evening civil twilight19:3000:30

Current date and time
Zulu (UTC)  01-Oct-2020 09:17:48
Local (UTC-5)  01-Oct-2020 04:17:48
 
METAR
K3N8 
18nm NW 
010855Z AUTO 34016G22KT 10SM BKN026 OVC035 05/04 A3010 RMK AO2 T00500035
KPKD 
24nm SE 
010904Z AUTO 32011KT 10SM BKN020 BKN025 07/04 A3004 RMK AO2 T00670044
KDTL 
24nm SW 
010855Z AUTO 33018G24KT 3SM -DZ OVC007 06/05 A3009 RMK AO2 P0001
KFSE 
28nm N 
010855Z AUTO 33014G19KT 3SM BR OVC009 04/03 A3010 RMK AO2
KBJI 
33nm NE 
010855Z AUTO 33009KT 5SM RA BKN011 BKN017 OVC023 06/05 A3004 RMK AO2 T00580052
TAF
KBJI 
33nm NE 
010520Z 0106/0206 33011KT 6SM BR BKN012 FM011000 34010KT P6SM VCSH BKN014 FM011400 34012G20KT P6SM BKN017 FM011900 33011KT P6SM SCT035
NOTAMs
Click for the latest NOTAMs
NOTAMs are issued by the DoD/FAA and will open in a separate window not controlled by AirNav.

 

 
 

Would you like to see your business listed on this page?

 If your business provides an interesting product or service to pilots, flight crews, aircraft, or users of the Jolly Fisherman Seaplane Base, you should consider listing it here.  To start the listing process, click on the button below
 
Add a business
 

Other Pages about Jolly Fisherman Seaplane Base

Update a link
 
Copyright © AirNav, LLC. All rights reserved. Privacy Policy  Contact